Location: Songkhla
(7.2000°N, 100.6000°E)
Time: 08:04:48
(UTC+07:00)

ATLAS 5 CENTAUR R/B - Pass Details

Date: 16 April 2026
Orbit: 264 x 10942 km, 20.1° (Epoch: 17 May)

Event Time Altitude Azimuth Distance (km) Brightness Sun altitude
Rises 19:03:00 0° 240° (WSW) 3,964 6.0 -9.8°
Reaches altitude 10° 19:07:08 10° 231° (SW) 2,030 4.3 -10.8°
Maximum altitude 19:10:37 29° 168° (SSE) 715 1.2 -11.7°
Enters shadow 19:11:37 21° 124° (ESE) 800 1.1 -11.9°
